Location: Sungai Liu
(2.3667°N, 113.8667°E)
Time: 08:54:11
(UTC+00:00)

Daily predictions for brighter satellites

Satellite Brightness Start Highest point End
(mag) Time Altitude Azimuth Time Altitude Azimuth Time Altitude Azimuth
Cosmos 2233 Rocket 4.0 12:14:03 57° E 12:14:03 57° E 12:20:13 10° NNE
SL-08 R/B 4.4 12:10:42 10° S 12:16:49 83° W 12:22:53 10° N
Ariane H10 3.9 12:15:58 10° WNW 12:20:49 41° NNW 12:20:49 41° NNW
Atlas Centaur 2 3.4 12:18:38 10° W 12:20:21 19° SW 12:20:21 19° SW
NOSS 3-4 (A) 3.3 12:16:55 10° SSW 12:22:45 74° WNW 12:28:21 10° NNE
NOSS 3-4 (C) 3.3 12:16:56 10° SSW 12:22:49 75° WNW 12:28:27 10° NNE
USA 215 3.2 12:19:03 10° NE 12:25:37 87° NW 12:32:12 10° SW
Cosmos 2061 Rocket 4.3 12:19:34 10° SSW 12:25:48 66° W 12:31:57 10° N
H-2A R/B 4.5 12:35:40 24° N 12:35:40 24° N 12:37:28 10° N
Meteor 1-20 Rocket 4.5 12:31:14 10° N 12:35:47 61° NNW 12:35:47 61° NNW
ATLAS 5 CENTAUR R/B 3.9 12:28:13 10° WNW 12:37:19 20° NNW 12:40:36 13° NNE
Ariane H10+ 3.5 12:35:45 10° W 12:38:19 35° W 12:38:19 35° W
Cosmos 2344 3.7 12:34:21 10° SSW 12:44:33 87° WNW 12:52:18 10° NNE
ARIANE 5 R/B 3.1 12:29:51 10° W 12:48:16 58° SSW 12:48:16 58° SSW
Ariane H10+ 4.1 12:23:56 10° W 12:56:41 83° SSW 12:56:41 83° SSW
ATLAS 5 CENTAUR R/B 3.5 13:04:48 10° NNW 13:09:09 44° NNW 13:09:09 44° NNW
ARIANE 5 R/B 4.4 18:45:10 38° E 18:45:10 38° E 18:59:18 10° E
ATLAS 3B CENTAUR R/B 4.0 19:37:05 23° ENE 19:37:05 23° ENE 19:39:43 10° ENE
ARIANE 5 R/B 3.6 19:58:34 44° SE 19:58:34 44° SE 20:08:40 10° E
APEX 4.5 20:05:37 67° SE 20:05:58 68° ESE 20:12:27 10° NNE
Cosmos 2181 Rocket 4.2 20:07:24 58° NNW 20:07:24 58° NNW 20:12:29 10° N
USA 229 DEB 4.0 19:59:16 10° NNW 20:07:12 80° ENE 20:15:09 10° SSE
USA 229 4.1 19:59:22 10° NNW 20:07:16 79° ENE 20:15:13 10° SSE
SWIFT 4.2 20:09:49 27° NNE 20:09:49 27° NNE 20:12:59 10° E
ARIANE 5 DEB (SYLDA) 4.5 20:11:26 23° SE 20:11:26 23° SE 20:14:32 10° ESE
Cosmos 1624 Rocket 4.4 20:15:30 55° N 20:15:30 55° N 20:19:40 10° N
Lacrosse 4 Rocket 2.7 20:14:35 38° ESE 20:14:38 38° ESE 20:18:42 10° NE
CZ-4C R/B 3.2 20:06:49 10° NW 20:15:21 61° WSW 20:23:49 10° S
MOS 1-B Rocket 3.9 20:13:15 10° S 20:19:53 84° WSW 20:25:41 10° NNW
ARIANE 5 DEB (SYLDA) 3.3 20:22:39 76° E 20:22:39 76° E 20:28:11 10° E
Cosmos 2056 Rocket 4.0 20:25:59 44° NNW 20:25:59 44° NNW 20:29:44 10° N
Delta 198 3.5 20:31:17 83° SSW 20:31:25 85° SSE 20:36:50 10° ENE
Cosmos 1606 Rocket 3.4 20:27:25 10° N 20:31:47 84° E 20:31:48 84° E
Envisat 3.3 20:27:26 10° NNE 20:32:26 63° ESE 20:35:17 26° S
Centaur AC-42 4.0 19:13:39 10° WNW 20:32:48 87° NNE 20:39:01 10° ESE
Meteor 1-11 4.4 20:33:09 50° WNW 20:33:09 50° WNW 20:38:27 10° N
NOSS 3-1 (A) 4.4 20:25:54 10° NW 20:34:34 52° WSW 20:43:21 10° S
In-Cosmos 22 Rocket 4.1 20:33:44 40° S 20:35:54 85° W 20:41:37 10° N
Cosmos 1943 Rocket 2.3 20:30:44 10° N 20:36:21 74° ENE 20:41:57 10° SSE
Cosmos 962 Rocket 4.4 20:35:18 10° NNW 20:41:14 56° W 20:44:21 28° SSW
DELTA 2 DEB (DPAF) 3.9 20:40:32 26° S 20:42:58 82° WSW 20:47:23 10° NNW
Cosmos 1602 Rocket 4.0 20:44:10 16° S 20:47:37 64° E 20:52:02 10° NNE
Meteor 2-1 Rocket 4.1 20:42:27 10° N 20:48:04 77° W 20:53:37 10° S
Cosmos 1959 Rocket 4.5 20:42:50 10° N 20:49:01 82° E 20:55:09 10° S
CZ-2C R/B 1.3 20:52:35 46° S 20:53:05 51° SE 20:56:40 10° ENE
Ariane 44P Rocket 4.2 20:48:14 26° WSW 20:55:50 54° S 20:59:56 10° ESE
DELTA 2 R/B (1) 4.0 20:53:53 26° SSW 20:56:50 54° SE 21:02:15 10° ENE
Cosmos 864 Rocket 4.3 20:52:20 10° N 20:58:28 80° W 21:04:36 10° S
Ariane H10-3 2.1 21:00:17 29° NW 21:01:04 36° N 21:03:04 10° ENE
Ariane H10 2.8 20:56:02 23° W 21:01:31 76° N 21:05:02 10° ENE
Cosmos 1825 2.4 21:01:49 43° WSW 21:02:10 44° W 21:05:43 10° NNW
IUS R/B (1) 3.6 21:01:12 21° SSW 21:02:21 24° SSE 21:04:25 10° ESE
BREEZE-M R/B 3.2 21:05:41 33° S 21:06:20 46° SE 21:09:18 10° NE
ARIANE 5 R/B 3.4 21:03:51 28° WSW 21:06:21 56° S 21:33:12 10° E
ATLAS 5 CENTAUR R/B 4.1 21:03:04 21° SW 21:10:34 39° S 21:56:42 10° ESE
Cosmos 1726 Rocket 4.2 21:09:33 10° NNW 21:13:27 32° W 21:16:15 16° SSW
OAO 3 Rocket 3.6 21:12:24 22° W 21:14:52 39° SW 21:19:17 10° SSE
YAOGAN 6 3.9 21:13:42 10° NNW 21:16:31 22° W 21:16:38 21° W
USA 281 4.4 21:11:44 10° NE 21:17:48 41° ESE 21:23:52 10° S
MINOTAUR 4 R/B 4.1 21:18:25 10° S 21:21:48 48° WSW 21:25:09 10° NNW
Cosmos 2366 rocket 4.3 21:17:26 10° NNW 21:23:11 42° W 21:29:02 10° SSW
Cosmos 1452 Rocket 3.9 21:25:01 10° SSW 21:30:00 43° WNW 21:34:58 10° N
GEOS 3 Rocket 3.7 21:25:14 10° NNE 21:30:23 64° WNW 21:35:35 10° SW
Meteor 1-31 Rocket 2.7 21:27:31 10° NNE 21:31:16 87° E 21:35:03 10° S
Cosmos 2058 Rocket 3.7 21:30:20 10° NNW 21:34:16 34° W 21:38:13 10° SSW
ATLAS 3B CENTAUR R/B 4.0 21:31:52 10° WNW 21:36:26 27° NNW 21:43:41 10° NE
Atlas Centaur 2 4.5 21:29:42 10° SSW 21:36:35 29° SSE 21:43:38 10° E
Cosmos 1825 Rocket 3.5 21:34:15 10° S 21:38:42 74° W 21:43:08 10° N
H-2A R/B 4.3 21:37:16 10° NW 21:39:30 16° WNW 21:41:31 11° WSW
Cosmos 1833 Rocket 3.6 21:35:25 10° S 21:40:52 52° ESE 21:46:17 10° NNE
SL-08 R/B 4.2 21:37:36 10° SSW 21:41:26 26° WSW 21:45:14 10° NW
Cosmos 2058 2.8 21:40:03 10° S 21:44:07 78° W 21:48:10 10° N
Cosmos 2263 4.4 21:42:28 10° NNW 21:48:10 81° ENE 21:53:56 10° SSE
TSX-5 3.9 21:44:58 10° S 21:48:26 59° ESE 21:51:32 10° NNE
H-2A R/B 4.1 21:44:37 10° NE 21:49:23 31° ESE 21:54:08 10° SSE
Cosmos 1607 4.1 21:44:43 10° SSW 21:50:58 59° WNW 21:57:08 10° N
SWIFT 2.3 21:46:57 10° WNW 21:51:11 78° SSW 21:55:25 10° ESE
Cosmos 407 Rocket 3.5 21:47:29 10° NNW 21:52:41 71° WSW 21:57:50 10° S
Meteor 1-27 4.3 21:51:37 10° NNW 21:57:13 61° W 22:02:45 10° S
ARIANE 5 R/B 4.0 21:53:41 10° W 22:10:28 88° N 22:14:48 10° E
